New York Downtown Manhattan/w, NY

2:24 AM EST on December 10, 2019 (GMT -0500)
New York Downtown Manhattan/w

Weather History for KJRB - August, 2019

Change the Weather History Date:

Sunday, August 18, 2019

  Actual Average (KEWR) Record (KEWR)
Temperature  
Mean Temperature 82 °F -  
Max Temperature 91 °F 83 °F 97 °F (2002)
Min Temperature 75 °F 67 °F 52 °F (1941)
Cooling Degree Days 17    
Growing Degree Days 32 (Base 50)    
Moisture  
Dew Point 74 °F    
Average Humidity 80    
Maximum Humidity 94    
Minimum Humidity 62    
Precipitation  
Precipitation 0.04 in - - ()
Sea Level Pressure  
Sea Level Pressure 30.00 in    
Wind  
Wind Speed 2 mph (WSW)    
Max Wind Speed 12 mph    
Max Gust Speed -    
Visibility 9 miles    
Events Rain , Thunderstorm    
Averages and records for this station are not official NWS values.
T = Trace of Precipitation, MM = Missing Value Source: NWS Daily Summary

Daily Weather History Graph

Daily Weather History Graph

Search for Another Location

Airport or City:

Astronomy

Aug. 18, 2019 Rise Set
Actual Time 6:09 AM EDT 7:50 PM EDT
Civil Twilight 5:39 AM EDT 8:19 PM EDT
Nautical Twilight 5:04 AM EDT 8:54 PM EDT
Astronomical Twilight 4:26 AM EDT 9:31 PM EDT
Moon 9:42 PM EDT (8/18) 8:52 AM EDT (8/18)
Length of Visible Light 14h 39m
Length of Day
13h 40m
Waning Gibbous, 91% of the Moon is Illuminated
Aug 18
Waning Gibbous
Aug 23
Last Quarter
Aug 30
New
Sep 5
First Quarter
Sep 14
Full

Hourly Weather History & Observations

Time (EDT) Temp. Heat Index Dew Point Humidity Pressure Visibility Wind Dir Wind Speed Gust Speed Precip Events Conditions
12:56 AM 77.0 °F - 73.9 °F 90% 29.99 in 10.0 mi Calm Calm - N/A   Overcast
1:40 AM 77.0 °F - 73.4 °F 89% 30.00 in 10.0 mi Calm Calm - N/A   Overcast
1:56 AM 77.0 °F - 73.9 °F 90% 30.00 in 10.0 mi Calm Calm - N/A   Overcast
2:56 AM 77.0 °F - 73.9 °F 90% 29.99 in 9.0 mi Calm Calm - N/A   Overcast
3:56 AM 77.0 °F - 73.9 °F 90% 29.99 in 10.0 mi Calm Calm - N/A   Overcast
4:40 AM 77.0 °F - 73.4 °F 89% 29.99 in 10.0 mi Calm Calm - N/A   Scattered Clouds
4:56 AM 77.0 °F - 73.9 °F 90% 29.99 in 10.0 mi Calm Calm - N/A   Partly Cloudy
5:35 AM 75.2 °F - 73.4 °F 94% 30.00 in 9.0 mi Calm Calm - N/A   Mostly Cloudy
5:56 AM 75.9 °F - 73.9 °F 94% 30.01 in 10.0 mi Calm Calm - N/A   Overcast
6:08 AM 77.0 °F - 73.4 °F 89% 30.01 in 10.0 mi Calm Calm - N/A   Overcast
6:56 AM 77.0 °F - 73.9 °F 90% 30.01 in 10.0 mi ESE 3.5 mph - N/A   Overcast
7:37 AM 77.0 °F - 73.4 °F 89% 30.03 in 7.0 mi Calm Calm - N/A   Scattered Clouds
7:56 AM 77.0 °F - 73.9 °F 90% 30.04 in 9.0 mi West 4.6 mph - N/A   Partly Cloudy
8:35 AM 77.0 °F - 73.4 °F 89% 30.04 in 10.0 mi SW 3.5 mph - N/A   Mostly Cloudy
8:56 AM 78.1 °F - 75.0 °F 90% 30.03 in 10.0 mi Calm Calm - N/A   Mostly Cloudy
9:56 AM 80.1 °F 85.1 °F 75.0 °F 85% 30.02 in 10.0 mi West 4.6 mph - N/A   Scattered Clouds
10:56 AM 82.0 °F 88.6 °F 75.0 °F 79% 30.03 in 10.0 mi WSW 5.8 mph - N/A   Clear
11:56 AM 84.9 °F 93.3 °F 75.0 °F 72% 30.02 in 10.0 mi WSW 4.6 mph - N/A   Clear
12:56 PM 87.1 °F 96.3 °F 75.0 °F 67% 30.01 in 10.0 mi West 5.8 mph - N/A   Clear
1:56 PM 89.1 °F 99.1 °F 75.0 °F 63% 30.01 in 10.0 mi SW 5.8 mph - N/A   Clear
2:11 PM 87.8 °F 97.6 °F 75.2 °F 66% 30.01 in 10.0 mi SW 5.8 mph - 0.00 in Rain Light Rain
2:56 PM 89.1 °F 100.2 °F 75.9 °F 65% 29.99 in 10.0 mi West 3.5 mph - 0.00 in   Clear
3:56 PM 89.1 °F 99.1 °F 75.0 °F 63% 29.98 in 10.0 mi SSE 11.5 mph - N/A   Partly Cloudy
4:52 PM 89.6 °F 99.8 °F 75.2 °F 62% 29.98 in 10.0 mi SSE 8.1 mph - N/A Thunderstorm Clear
4:56 PM 89.1 °F 99.1 °F 75.0 °F 63% 29.97 in 10.0 mi Variable 4.6 mph - N/A Thunderstorm Clear
5:56 PM 84.0 °F 94.8 °F 78.1 °F 82% 30.00 in 4.0 mi NNW 11.5 mph - 0.02 in Rain , Thunderstorm Light Rain
5:58 PM 82.4 °F 90.9 °F 77.0 °F 84% 30.00 in 3.0 mi NNW 9.2 mph - 0.01 in Rain Light Rain
6:02 PM 80.6 °F 86.2 °F 75.2 °F 84% 30.00 in 2.5 mi Variable 4.6 mph - 0.01 in Rain , Thunderstorm Light Rain
6:11 PM 80.6 °F 86.2 °F 75.2 °F 84% 30.00 in 7.0 mi Variable 4.6 mph - 0.01 in Rain , Thunderstorm Rain
6:30 PM 78.8 °F - 73.4 °F 83% 29.99 in 10.0 mi West 4.6 mph - 0.02 in Rain Light Rain
6:56 PM 79.0 °F - 72.0 °F 79% 29.97 in 10.0 mi West 5.8 mph - 0.02 in   Clear
7:08 PM 78.8 °F - 71.6 °F 78% 29.96 in 10.0 mi West 6.9 mph - N/A Thunderstorm Clear
7:23 PM 80.6 °F 85.4 °F 73.4 °F 79% 29.97 in 10.0 mi West 6.9 mph - N/A   Clear
7:56 PM 81.0 °F 85.8 °F 73.0 °F 77% 30.00 in 10.0 mi Variable 3.5 mph - N/A   Partly Cloudy
8:56 PM 78.1 °F - 68.0 °F 71% 30.00 in 10.0 mi ENE 8.1 mph - N/A   Partly Cloudy
9:56 PM 78.1 °F - 68.0 °F 71% 30.01 in 10.0 mi Calm Calm - N/A   Clear
10:56 PM 78.1 °F - 66.0 °F 66% 29.99 in 10.0 mi NE 3.5 mph - N/A   Clear
11:56 PM 75.0 °F - 66.9 °F 76% 29.98 in 10.0 mi WSW 4.6 mph - N/A   Clear